Date,TemperatureHighF,TemperatureAvgF,TemperatureLowF,DewpointHighF,DewpointAvgF,DewpointLowF,HumidityHigh,HumidityAvg,HumidityLow,PressureMaxIn,PressureMinIn,WindSpeedMaxMPH,WindSpeedAvgMPH,GustSpeedMaxMPH,PrecipitationSumIn
2013-3-1,47.5,35.4,24.3,26.7,20.2,11.8,76,55,35,30.56,30.31,3,1,6,0.00
2013-3-2,64.4,41.9,23.0,31.6,25.7,16.9,82,57,24,30.61,30.03,2,0,4,0.00
2013-3-3,68.0,46.7,32.4,36.5,28.1,22.3,78,53,21,30.19,29.47,5,1,11,0.00
2013-3-4,48.7,31.1,20.8,29.2,17.0,4.5,82,57,32,30.54,29.67,8,1,11,0.04
2013-3-5,45.9,28.1,11.5,22.8,13.5,3.3,74,56,27,30.72,30.24,4,1,8,0.01
2013-3-6,59.4,36.3,17.4,31.9,21.9,10.1,77,58,26,30.50,29.78,2,0,4,0.00
2013-3-7,69.1,45.8,28.0,35.6,26.4,19.9,76,51,21,30.15,29.70,7,1,13,0.00
2013-3-8,53.2,38.4,28.6,34.9,28.8,22.8,81,69,48,30.21,29.73,4,0,5,6.12
2013-3-9,39.4,34.4,28.4,31.7,24.1,14.7,92,67,46,30.33,29.81,9,2,14,0.11
2013-3-10,53.4,39.3,28.0,21.9,15.7,8.1,73,41,22,30.33,30.01,9,3,16,0.01
2013-3-11,60.6,40.4,27.5,30.1,23.1,14.3,90,56,22,30.39,29.78,8,1,13,0.00
2013-3-12,41.0,31.9,25.0,29.8,24.9,19.9,92,76,58,30.58,30.35,3,0,8,0.17
2013-3-13,66.6,44.0,24.4,37.7,29.3,20.6,89,61,28,30.53,30.03,4,0,5,0.00
2013-3-14,75.0,53.0,34.3,39.6,31.2,25.7,83,50,18,30.47,29.94,3,0,7,0.00
2013-3-15,79.9,58.8,40.1,35.1,28.4,21.5,74,38,15,30.17,29.60,7,2,13,0.00
2013-3-16,59.5,48.6,35.6,35.4,31.7,27.8,76,53,34,30.16,29.75,4,1,8,0.00
2013-3-17,63.7,40.9,27.0,35.5,23.4,0.6,85,54,22,30.02,29.40,8,1,13,0.00
2013-3-18,54.5,41.0,24.8,19.5,8.8,-5.4,46,27,21,30.15,29.78,8,2,14,0.00
2013-3-19,59.2,45.0,25.0,21.0,12.4,1.2,59,28,21,30.48,29.97,8,2,14,0.00
2013-3-20,42.1,37.5,35.1,20.7,18.9,17.2,52,47,41,29.93,29.88,1,0,2,0.00
2013-3-21,56.1,46.1,35.8,34.7,19.3,5.7,66,36,21,29.97,29.52,7,3,14,0.00
2013-3-22,47.3,33.3,23.9,29.4,17.6,3.4,90,56,27,30.19,29.79,4,1,8,0.01
2013-3-23,28.9,21.8,9.5,21.7,14.5,2.0,85,74,54,30.63,30.19,0,0,0,0.00
2013-3-24,37.6,19.9,3.9,19.2,7.7,-2.8,78,60,35,30.66,30.23,6,1,11,0.17
2013-3-25,40.6,25.5,14.5,20.1,12.3,7.0,76,58,37,30.65,30.29,4,1,8,0.00
2013-3-26,49.6,31.7,13.3,31.9,18.2,6.9,77,60,32,30.58,29.95,2,0,4,6.60
2013-3-27,60.3,43.5,30.2,37.7,32.5,26.2,89,68,35,30.28,29.94,4,1,6,0.00
2013-3-28,72.0,47.2,27.1,37.4,29.8,23.0,90,58,18,30.34,29.83,5,1,8,0.00
2013-3-29,73.6,52.1,33.6,39.4,30.9,24.6,83,50,17,30.31,29.83,5,1,10,0.00
2013-3-30,70.7,47.0,31.5,41.6,33.2,24.7,95,65,18,30.40,29.82,7,1,13,0.08
2013-3-31,75.0,49.2,25.9,43.2,29.7,21.3,97,58,15,30.41,29.69,3,1,5,0.01